Weather History for Jacksonville Craig, FL

Change the Weather History Date:

Monday, March 26, 2012

  Actual Average Record
Temperature  
Mean Temperature 66 °F -  
Max Temperature 78 °F 72 °F 82 °F (2002)
Min Temperature 55 °F 53 °F 41 °F (2014)
Cooling Degree Days 1    
Growing Degree Days 16 (Base 50)    
Moisture  
Dew Point 52 °F    
Average Humidity 63    
Maximum Humidity 86    
Minimum Humidity 45    
Precipitation  
Precipitation 0.00 in - - ()
Sea Level Pressure  
Sea Level Pressure 29.96 in    
Wind  
Wind Speed 4 mph (NE)    
Max Wind Speed 15 mph    
Max Gust Speed 23 mph    
Visibility 10 miles    
Events      
Averages and records for this station are not official NWS values.
T = Trace of Precipitation, MM = Missing Value Source: NWS Daily Summary

Daily Weather History Graph

Daily Weather History Graph

Search for Another Location

Airport:

Trip Planner

Search our weather history database for the weather conditions in past years. The results will help you decide how hot, cold, wet, or windy it might be!

Date:

Astronomy

Mar. 26, 2012 Rise Set
Actual Time 7:21 AM EDT 7:41 PM EDT
Civil Twilight 6:57 AM EDT 8:05 PM EDT
Nautical Twilight 6:29 AM EDT 8:33 PM EDT
Astronomical Twilight 6:01 AM EDT 9:02 PM EDT
Moon 9:28 AM EDT (3/26) 11:30 PM EDT (3/26)
Length of Visible Light 13h 07m
Length of Day
12h 19m
Waxing Crescent, 14% of the Moon is Illuminated
Mar 26
Waxing Crescent
Mar 30
First Quarter
Apr 6
Full
Apr 13
Last Quarter
Apr 21
New

Hourly Weather History & Observations

Time (EDT) Temp. Dew Point Humidity Pressure Visibility Wind Dir Wind Speed Gust Speed Precip Events Conditions
12:53 AM 55.9 °F 48.9 °F 77% 29.88 in 10.0 mi Calm Calm - N/A   Scattered Clouds
1:53 AM 55.0 °F 48.0 °F 77% 29.89 in 10.0 mi Calm Calm - N/A   Clear
2:53 AM 57.0 °F 48.9 °F 74% 29.89 in 10.0 mi Calm Calm - N/A   Clear
3:53 AM 62.1 °F 48.0 °F 60% 29.88 in 10.0 mi NW 8.1 mph - N/A   Clear
4:53 AM 61.0 °F 48.0 °F 62% 29.89 in 10.0 mi Variable 4.6 mph - N/A   Clear
5:53 AM 59.0 °F 48.0 °F 67% 29.90 in 10.0 mi Calm Calm - N/A   Clear
6:53 AM 57.9 °F 48.9 °F 72% 29.92 in 10.0 mi WNW 5.8 mph - N/A   Clear
7:53 AM 57.9 °F 50.0 °F 75% 29.94 in 10.0 mi NNW 4.6 mph - N/A   Clear
8:53 AM 64.0 °F 53.1 °F 67% 29.96 in 10.0 mi NNW 8.1 mph - N/A   Clear
9:53 AM 68.0 °F 52.0 °F 56% 29.98 in 10.0 mi North 12.7 mph - N/A   Clear
10:53 AM 73.9 °F 52.0 °F 46% 30.00 in 10.0 mi North 15.0 mph 18.4 mph N/A   Clear
12:53 PM 75.9 °F 54.0 °F 46% 30.00 in 10.0 mi NE 12.7 mph 23.0 mph N/A   Clear
1:53 PM 77.0 °F 54.0 °F 45% 29.99 in 10.0 mi East 11.5 mph - N/A   Clear
2:53 PM 75.9 °F 53.1 °F 45% 29.98 in 10.0 mi ENE 5.8 mph - N/A   Clear
3:53 PM 77.0 °F 55.0 °F 47% 29.96 in 10.0 mi ESE 8.1 mph - N/A   Clear
4:53 PM 75.9 °F 54.0 °F 46% 29.95 in 10.0 mi ESE 9.2 mph - N/A   Clear
5:53 PM 75.0 °F 55.9 °F 51% 29.95 in 10.0 mi SE 9.2 mph - N/A   Clear
6:53 PM 73.0 °F 55.0 °F 53% 29.96 in 10.0 mi ESE 6.9 mph - N/A   Clear
7:53 PM 68.0 °F 55.9 °F 65% 29.98 in 10.0 mi SE 4.6 mph - N/A   Clear
8:53 PM 66.0 °F 57.0 °F 73% 29.99 in 10.0 mi Calm Calm - N/A   Clear
9:53 PM 61.0 °F 55.9 °F 83% 30.02 in 10.0 mi Calm Calm - N/A   Clear
10:53 PM 61.0 °F 55.9 °F 83% 30.04 in 9.0 mi Calm Calm - N/A   Clear
11:53 PM 60.1 °F 55.9 °F 86% 30.05 in 9.0 mi Calm Calm - N/A   Clear